This demonstration page uses our WeatherBlox Daily Observations layout. Learn more.

Left ArrowRight Arrow

Hourly Observations for January 14, 2020

Temp ( °F °C ) Dew Point ( °F °C ) Humidity (%) Winds ( mph kmh ) Pressure ( in mb ) Visibility ( mi km ) Precip ( " mm )
12:53 am 00:53 Cloudy with Light Rain 63 17.2 62 16.7 97 97 Calm 30.27 1025 10 16 0.07 1.78
1:53 am 01:53 Mostly Clear 62 16.7 62 16.7 100 100 Calm 30.25 1024 10 16 0.00 0.00
2:18 am 02:18 Partly Cloudy with Mist and Fog 61 16.1 60 15.6 97 97 VRB 3 6 30.25 1024 2 3 0.00 0.00
2:29 am 02:29 Mostly Cloudy 62 16.7 62 16.7 100 100 W 6 9 30.25 1024 9 14 0.00 0.00
2:53 am 02:53 Cloudy 63 17.2 62 16.7 97 97 WSW 3 6 30.24 1024 10 16 0.00 0.00
3:44 am 03:44 Partly Cloudy 62 16.7 61 16.1 96 96 SW 3 6 30.23 1024 10 16 0.00 0.00
3:51 am 03:51 Mostly Cloudy 63 17 61 16 94 94 SW 3 6 30.23 1024 10 16 0.00 0.00
3:53 am 03:53 Mostly Cloudy 62 16.7 61 16.1 96 96 SW 3 6 30.22 1023 10 16 0.00 0.00
4:35 am 04:35 Cloudy 62 16.7 61 16.1 96 96 SSW 6 9 30.21 1023 10 16 0.00 0.00
4:53 am 04:53 Cloudy 62 16.7 61 16.1 96 96 Calm 30.20 1023 10 16 0.00 0.00
5:02 am 05:02 Cloudy 62 16.7 61 16.1 96 96 S 3 6 30.20 1023 10 16 0.00 0.00
5:53 am 05:53 Cloudy 62 16.7 60 15.6 93 93 Calm 30.19 1022 10 16 0.00 0.00
6:49 am 06:49 Cloudy with Mist and Fog 61 16 61 16 100 100 Calm 30.22 1023 1 2 0.00 0.00
7:04 am 07:04 Cloudy with Mist and Fog 61 16.1 60 15.6 97 97 Calm 30.24 1024 5 8 0.00 0.00
7:26 am 07:26 Cloudy 61 16.1 60 15.6 97 97 SE 3 6 30.23 1024 10 16 0.00 0.00
7:53 am 07:53 Cloudy 62 16.7 61 16.1 96 96 Calm 30.24 1024 10 16 0.00 0.00
8:53 am 08:53 Cloudy 62 16.7 60 15.6 93 93 SW 3 6 30.24 1024 10 16 0.00 0.00
9:53 am 09:53 Cloudy 63 17.2 61 16.1 93 93 W 5 7 30.27 1025 10 16 0.00 0.00
10:25 am 10:25 Cloudy with Light Rain 62 16.7 60 15.6 93 93 NW 7 11 30.31 1026 3 5 0.02 0.51
10:28 am 10:28 Cloudy with Light Rain 62 16.7 60 15.6 93 93 NNW 7 11 30.32 1027 4 6 0.02 0.51
10:53 am 10:53 Cloudy with Light Rain 63 17.2 60 15.6 90 90 Calm 30.31 1026 3 5 0.03 0.76
11:20 am 11:20 Cloudy with Light Rain 63 17.2 60 15.6 90 90 Calm 30.30 1026 10 16 0.01 0.25
11:53 am 11:53 Cloudy with Light Rain 63 17.2 60 15.6 90 90 Calm 30.28 1025 10 16 0.01 0.25
12:53 pm 12:53 Cloudy with Light Rain 63 17.2 60 15.6 90 90 SW 3 6 30.24 1024 10 16 0.02 0.51
1:53 pm 13:53 Cloudy with Light Rain 63 17.2 60 15.6 90 90 WSW 3 6 30.22 1024 10 16 0.03 0.76
2:53 pm 14:53 Cloudy with Rain 62 16.7 60 15.6 93 93 S 3 6 30.23 1024 4 6 0.09 2.29
3:03 pm 15:03 Cloudy with Rain 62 16.7 60 15.6 93 93 SSE 5 7 30.23 1024 4 6 0.02 0.51
3:53 pm 15:53 Cloudy with Light Rain 62 16.7 60 15.6 93 93 S 7 11 30.20 1023 10 16 0.10 2.54
4:53 pm 16:53 Cloudy with Light Rain 62 16.7 60 15.6 93 93 S 12 19 30.18 1022 10 16 0.02 0.51
5:53 pm 17:53 Cloudy with Light Rain 61 16.1 59 15 93 93 SSE 6 9 30.20 1023 10 16 0.05 1.27
6:00 pm 18:00 Cloudy with Light Rain 61 16.1 59 15 93 93 S 6 9 30.20 1023 10 16 0.00 0.00
6:51 pm 18:51 Mostly Cloudy 63 17 59 15 88 88 WNW 9 15 30.19 1022 10 16 0.01 0.25
6:53 pm 18:53 Mostly Cloudy 62 16.7 59 15 90 90 W 6 9 30.19 1022 10 16 0.01 0.25
7:00 pm 19:00 Mostly Cloudy 62 16.7 58 14.4 86 86 WNW 9 15 30.21 1023 10 16 0.00 0.00
7:31 pm 19:31 Partly Cloudy 61 16.1 59 15 93 93 SSW 3 6 30.20 1023 10 16 0.00 0.00
7:53 pm 19:53 Mostly Cloudy 62 16.7 58 14.4 86 86 WNW 3 6 30.20 1023 10 16 0.00 0.00
8:53 pm 20:53 Clear 61 16.1 58 14.4 90 90 Calm 30.20 1023 10 16 0.00 0.00
9:07 pm 21:07 Partly Cloudy 60 15.6 58 14.4 93 93 Calm 30.20 1023 10 16 0.00 0.00
9:53 pm 21:53 Clear 58 14.4 58 14.4 100 100 Calm 30.20 1023 10 16 0.00 0.00
10:43 pm 22:43 Mostly Clear with Mist and Fog 58 14.4 57 13.9 97 97 Calm 30.21 1023 3 4 0.00 0.00
10:47 pm 22:47 Mostly Cloudy with Mist and Fog 57 14 55 13 94 94 Calm 30.20 1023 1 2 0.00 0.00
10:51 pm 22:51 Mostly Cloudy with Fog 57 14 57 14 100 100 Calm 30.20 1023 1 1 0.00 0.00
10:53 pm 22:53 Mostly Cloudy with Fog 58 14.4 57 13.9 97 97 Calm 30.19 1022 1 1 0.00 0.00
11:15 pm 23:15 Cloudy with Mist and Fog 57 13.9 57 13.9 100 100 Calm 30.21 1023 1 2 0.00 0.00
11:21 pm 23:21 Mostly Cloudy with Mist and Fog 58 14.4 57 13.9 97 97 Calm 30.21 1023 3 5 0.00 0.00
11:28 pm 23:28 Mostly Cloudy with Mist and Fog 58 14.4 57 13.9 97 97 Calm 30.21 1023 3 4 0.00 0.00
11:42 pm 23:42 Partly Cloudy with Mist and Fog 57 13.9 57 13.9 100 100 Calm 30.21 1023 3 5 0.00 0.00
11:53 pm 23:53 Mostly Clear with Mist and Fog 58 14.4 57 13.9 97 97 Calm 30.19 1022 6 10 0.00 0.00

Powered by AerisWeather